This is the latest recevied weather packets stored in our database for station/object KE5WTH-14. If no packets are shown the sender has not sent any weather packets the latest 10 day(s).
| Time | Temp. | Humidity | Pressure | Rain* | Wind** | Luminosity | Snow |
|---|---|---|---|---|---|---|---|
| 1778353173 | 29.44° C | 59% | 1010 hPa | 0 mm | - | 1015 W/m² | - |
| 1778353112 | 29.44° C | 58% | 1010 hPa | 0 mm | - | 1025 W/m² | - |
| 1778353053 | 29.44° C | 58% | 1010 hPa | 0 mm | - | 1048 W/m² | - |
| 1778352993 | 29.44° C | 60% | 1010 hPa | 0 mm | - | 1055 W/m² | - |
| 1778352932 | 29.44° C | 61% | 1010.1 hPa | 0 mm | - | 1050 W/m² | - |
| 1778352866 | 29.44° C | 59% | 1010.1 hPa | 0 mm | - | 1044 W/m² | - |
| 1778352805 | 29.44° C | 60% | 1010.1 hPa | 0 mm | - | 1053 W/m² | - |
| 1778352744 | 29.44° C | 63% | 1010.1 hPa | 0 mm | - | 1057 W/m² | - |
| 1778352682 | 28.89° C | 65% | 1010.1 hPa | 0 mm | - | 1055 W/m² | - |
| 1778352620 | 28.89° C | 64% | 1010.1 hPa | 0 mm | - | 1069 W/m² | - |
| 1778352559 | 28.89° C | 63% | 1010.1 hPa | 0 mm | - | 1055 W/m² | - |
| 1778352497 | 28.89° C | 63% | 1010.1 hPa | 0 mm | - | 1041 W/m² | - |
| 1778352438 | 28.89° C | 63% | 1010.1 hPa | 0 mm | - | 1041 W/m² | - |
| 1778352376 | 28.89° C | 64% | 1010.1 hPa | 0 mm | - | 1081 W/m² | - |
| 1778352312 | 28.89° C | 65% | 1010.1 hPa | 0 mm | - | 997 W/m² | - |
| 1778352251 | 28.89° C | 64% | 1010.1 hPa | 0 mm | - | 1002 W/m² | - |
| 1778352190 | 28.89° C | 65% | 1010.1 hPa | 0 mm | - | 1002 W/m² | - |
| 1778352135 | 28.89° C | 64% | 1010 hPa | 0 mm | - | 1085 W/m² | - |
| 1778352072 | 28.89° C | 62% | 1010.1 hPa | 0 mm | - | 1085 W/m² | - |
| 1778352006 | 28.89° C | 64% | 1010.2 hPa | 0 mm | - | 1073 W/m² | - |
| 1778351945 | 28.89° C | 63% | 1010.1 hPa | 0 mm | - | 1110 W/m² | - |
| 1778351883 | 28.89° C | 66% | 1010.1 hPa | 0 mm | - | 1125 W/m² | - |
| 1778351822 | 28.89° C | 62% | 1010.2 hPa | 0 mm | - | 1143 W/m² | - |
| 1778351765 | 28.89° C | 64% | 1010.1 hPa | 0 mm | - | 1148 W/m² | - |
| 1778351734 | 28.89° C | 63% | 1010.3 hPa | 0 mm | - | 216 W/m² | - |
* Rain latest hour (hover to see other rain measurements)
** Current wind speed in m/s (hover to see current wind gust speed)